Powrót do katalogu

STARLINK-4347

AktywnyŁącznośćSSO
NORAD 53076·PAYLOAD·🇺🇸 United States

Wystrzelony Jul 11, 2022 z Vandenberg Space Force Base

Loading…

Następne Przeloty (najbliższe 24 godziny)

TLE

ŚwieżeSource: CelesTrak SupGP

Epoka: Sep 14, 2026, 21:03 UTC

1 53076C 22077AK  26257.87756944  .00072402  00000+0  22480-2 0  2570
2 53076  97.2853  72.7028 0001440  93.4634  62.0885 15.33395446    14

Śledź STARLINK-4347 w czasie rzeczywistym z AllMySat

Download on the App Store